DECAYED

STARLINK-1813, 46711 (Decayed)

Orbit data source: Space-Track

STARLINK-1813, 46711 was a payload satellite owned by SpaceX/Seattle (US) in LEO that was launched on Sun, 18 Oct 2020 UTC via an FALCON 9 launch vehicle from the Air Force Eastern Test Range (AFETR). Payload-class satellites include a variety of spacecraft equipped with specific instruments for various scientific and technological missions. These include communications satellites like Starlink; space stations such as the ISS; scientific satellites like the Hubble; Earth observation satellites from companies like Planet Labs, Umbra, and HawkEye 360; GPS; miniature CubeSats for education and research; and military/defense satellites.

Not visible in the next 10 days
Identifier
46711, 2020-073AT
Orbit
Decayed
Country
Flag of USUS
Related business
Manufacturer
SpaceX/Seattle
Mission
Decayed Commercial Communications
Bus & Motor
STARLINK, Unknown motor
Mass
260 kg wet, ~248 kg dry
Launch date (UTC)
2020-10-18 (6 years ago)
Launch vehicle
FALCON 9
Launch site
Air Force Eastern Test Range (AFETR)
Object type
Payload
Rocket body
Debris
Shape & HBR
Box + 1 Pan, 10.1 m
Radar Cross Section
13.562 m², Large (>1 m²)

Expand to show TLE details & history
Last TLE update: 1 year ago

TLE from 1 year ago
0 STARLINK-1813
1 46711U 20073AT  25013.88423752  .15730132  12509-4  36692-3 0  9993
2 46711  53.0203 294.7193 0004357 250.1877 188.3687 16.46176321234757
Epoch: 2025-01-13T21:13Z
TLE epoch observation values (Epoch: 2025-01-13T21:13:18.121Z)
Latitude
51.68899°
Longitude
-65.8365°
Altitude
158.374 km
Speed
7.816 km/s
True Right ascension
00h 24m 21s
True Declination
51° 30' 22"
Sunlit
Object was in daylight at epoch
Visualization orbit readout
Latitude
Unknown
Longitude
Unknown
Altitude
Unknown
Speed
Unknown
Apparent Right ascension
Unknown
Apparent Declination
Unknown
Sunlit
N/A
Visualization observer readout
Local Sidereal Time
03:34:53
Azimuth
Unknown
Elevation
Unknown
Doppler factor
Unknown
Orbital elements
Apogee altitude
152.561 km
Perigee altitude
146.872 km
Semi-major axis
6,527.854 km
Eccentricity
0.00044
Inclination
53.0203°
RAAN
294.7193°
Arg. of periapsis
250.1877°
True anomaly
188.36144°
Mean anomaly
188.3687°
Eccentric anomaly
188.36507°
Mean motion
4.11517 °/min
Orbital period
87.48 mins
BSTAR
0.00036692
Loading maneuver chart data...
Computing Atmospheric mass density...

Documentation

Showing up to 5 results
|